Wind_Speed
42 45 48 47 45 44 45 47 48 48 48 48 48 49 49 50 51 50 49 50 50 51 51 49 48 48 49 48 48 47 48 48 47 47 45 46 47 46 46 45 43 42 41 40 40 39 38 37 37 37 36 36 35 34 33 33 34 34 34 34 34 35 35 34 34 34 35 35 35 36 36 36 35 34 33 33 34 36 38 39 40 41 41 42 43 44
44 45 47 48 47 45 45 47 49 50 49 49 49 49 50 50 50 50 51 52 52 52 52 51 52 53 51 50 49 48 47 47 47 46 45 45 46 46 45 46 45 43 42 41 40 38 38 37 37 36 36 36 35 34 33 33 33 34 35 35 35 36 36 36 35 36 37 37 38 38 39 39 38 37 36 35 35 35 36 37 38 39 40 41 42 44
47 47 47 49 49 45 45 47 49 50 50 51 51 51 51 51 51 51 52 53 54 55 54 53 55 55 54 53 51 48 46 44 44 43 41 40 41 41 41 41 41 41 39 38 37 37 37 37 37 37 37 37 36 35 34 34 35 36 37 37 37 38 38 38 37 37 38 38 39 39 40 40 40 40 38 37 36 35 35 35 36 36 37 38 40 42
47 47 48 49 48 46 46 48 48 49 49 50 52 52 52 52 53 53 53 54 54 56 56 56 57 56 55 55 53 49 46 45 43 40 37 37 37 36 35 34 35 36 35 34 34 34 36 36 36 37 37 37 37 37 37 37 38 38 38 38 38 39 39 40 39 38 38 38 39 39 39 39 39 39 38 37 35 34 33 33 33 34 35 36 38 40
45 46 47 49 49 47 47 47 48 49 49 50 51 52 52 51 52 53 53 54 54 55 57 58 59 58 56 54 50 47 47 50 49 43 40 39 36 34 33 31 28 28 30 31 32 32 33 33 33 34 35 37 37 38 38 39 39 40 40 39 39 38 38 39 39 39 38 37 38 38 38 38 37 36 35 34 33 32 31 31 32 33 34 35 37 38
44 43 44 45 47 49 48 47 47 48 48 49 49 49 50 50 50 51 52 53 54 55 56 57 59 59 56 52 47 44 46 52 51 46 43 42 38 37 37 31 22 19 23 26 29 28 28 28 29 30 32 33 35 36 37 38 39 40 40 39 38 38 37 37 38 38 37 37 37 37 37 36 36 35 34 34 34 34 34 34 35 36 36 37 38 39
43 42 41 42 44 46 48 47 47 47 48 49 48 48 48 49 50 51 51 52 53 54 55 56 58 59 57 52 47 45 47 50 50 46 46 45 42 41 37 27 18 19 21 22 24 25 25 27 28 29 30 31 32 32 34 35 37 39 39 39 38 38 37 37 37 37 37 36 37 37 37 37 37 37 37 37 38 39 39 40 41 41 41 41 41 41
42 40 40 42 42 43 44 45 46 47 47 48 47 47 47 48 48 49 50 51 52 53 53 54 54 56 56 52 49 49 50 52 51 48 49 48 44 43 35 21 17 22 22 23 25 28 29 29 29 30 31 32 32 32 33 34 36 38 40 41 40 39 38 37 37 37 38 39 39 40 40 41 41 42 42 43 43 44 45 45 46 46 46 46 45 45
42 41 40 41 41 41 42 43 44 45 46 46 45 46 46 46 47 47 49 50 51 52 53 52 51 53 55 52 50 52 54 56 54 51 52 50 46 46 40 24 21 25 27 29 31 34 36 33 31 32 33 34 34 35 35 36 37 39 42 44 44 43 41 39 38 38 39 41 43 43 44 45 45 46 47 47 48 49 50 50 51 51 51 50 50 49
44 43 42 41 40 40 40 41 41 42 43 43 43 44 45 46 47 48 49 50 51 54 54 52 52 54 55 54 53 54 56 58 56 54 54 52 47 44 39 28 27 30 31 34 35 40 44 41 38 37 37 37 38 38 38 39 40 41 43 46 48 49 48 46 44 45 46 46 47 48 49 50 50 51 51 52 53 54 55 55 55 55 55 54 53 52
45 45 44 42 41 40 40 40 41 42 42 43 44 45 47 48 49 50 52 53 54 56 55 53 54 56 57 56 56 57 58 59 58 56 56 54 49 43 37 30 31 35 35 38 42 47 49 46 44 42 41 42 43 43 43 44 44 45 46 48 50 52 53 53 53 54 55 54 53 53 54 54 55 56 56 57 58 59 60 60 59 59 59 58 56 55
44 43 43 43 42 41 41 42 43 43 44 45 47 49 50 51 52 54 55 56 57 57 56 55 57 58 59 59 59 59 60 60 58 56 54 53 50 46 40 35 34 38 41 46 52 53 51 50 48 46 45 44 45 47 48 48 49 50 51 53 54 55 56 56 57 59 60 59 59 59 59 59 59 60 61 61 62 63 63 64 64 63 63 62 60 59
42 41 42 43 43 42 43 45 46 46 47 49 49 50 51 52 53 55 55 56 56 56 55 56 57 59 61 61 61 62 62 61 59 57 55 53 52 49 46 42 41 42 47 54 58 56 53 53 51 50 50 48 47 48 49 51 52 53 55 57 59 60 61 61 61 61 62 63 64 65 65 65 65 64 65 65 65 66 66 67 67 66 66 65 64 62
45 45 45 46 45 45 46 46 48 49 49 49 48 48 50 51 52 54 54 54 54 54 55 56 57 60 61 61 61 61 61 60 60 59 58 57 55 53 52 50 50 51 54 59 61 60 59 57 55 54 53 52 50 48 49 51 53 56 58 60 62 63 65 65 65 66 66 66 67 68 69 70 70 69 69 69 69 69 69 69 68 68 67 66 66 65
50 50 50 50 49 48 47 47 47 48 48 47 47 48 49 49 50 52 52 53 54 54 55 55 57 59 60 59 58 58 58 59 59 58 58 59 57 56 56 56 57 59 61 63 64 63 63 61 59 57 56 55 55 54 53 53 54 57 60 62 64 66 67 68 69 69 69 69 69 70 70 72 73 72 72 71 71 71 71 71 70 70 69 68 67 66
50 50 50 50 49 48 47 47 46 45 46 47 47 48 49 49 50 52 53 54 55 57 57 55 56 57 56 57 58 58 58 58 59 60 60 62 62 61 62 62 63 63 64 65 65 65 64 63 63 62 61 61 60 60 59 58 58 59 61 63 65 66 68 70 71 71 71 71 71 70 70 71 72 73 72 72 72 72 73 73 72 72 71 70 69 68
49 50 49 48 49 49 48 49 49 49 51 52 51 52 53 53 54 56 58 58 58 61 61 59 59 59 58 60 61 61 62 63 64 64 64 64 65 65 66 66 67 67 66 65 66 66 65 64 64 64 64 65 66 66 64 63 63 62 63 65 66 67 68 69 70 70 70 71 71 71 71 72 72 73 73 73 73 74 74 74 74 73 72 71 70 70
52 52 50 49 52 54 53 54 56 58 58 58 58 57 56 57 58 58 59 60 60 63 64 62 62 61 60 62 64 63 64 64 65 64 63 62 62 61 62 63 64 65 65 64 64 65 65 64 65 66 67 68 68 68 67 66 65 63 64 65 66 67 67 67 67 68 69 71 72 73 73 74 74 74 75 75 75 75 74 75 74 74 73 72 71 71
59 59 57 56 58 60 59 59 61 60 59 58 58 58 57 57 57 56 56 58 58 60 61 60 58 57 57 57 58 60 60 59 59 57 57 57 57 57 58 59 60 61 63 64 63 64 64 65 67 68 69 70 70 70 69 67 65 64 64 64 65 66 66 67 68 68 69 70 71 73 74 75 76 77 77 76 76 75 75 75 75 75 74 74 73 72
62 63 63 62 61 62 61 60 60 58 56 56 56 55 54 53 53 52 52 53 54 56 57 57 57 55 53 51 52 54 54 53 53 52 53 55 56 57 58 59 59 60 62 64 64 65 66 66 67 67 67 68 68 68 68 67 66 65 64 64 65 65 65 66 66 67 69 69 70 71 71 72 73 73 74 74 74 75 75 75 76 76 76 75 75 74
60 61 61 59 59 59 59 57 56 54 53 54 53 50 49 48 48 49 50 50 52 55 55 56 56 53 49 49 51 51 50 51 53 54 54 55 56 59 59 60 60 60 61 64 65 65 65 65 65 64 63 64 64 64 64 64 64 64 64 65 66 67 68 69 69 69 71 71 70 70 70 69 68 67 69 70 72 73 73 74 75 76 76 77 77 77
60 59 59 58 57 56 55 52 52 53 52 52 51 47 45 46 46 49 52 51 51 53 53 54 57 54 49 50 51 50 49 51 53 55 55 56 58 59 60 60 60 59 60 63 64 64 65 66 67 66 66 66 66 66 66 68 68 68 68 69 71 73 74 75 75 75 74 74 72 72 72 73 72 72 73 73 74 76 77 76 77 77 77 79 80 81
60 59 59 59 58 56 54 52 52 54 52 52 51 48 47 48 48 51 55 54 53 54 54 55 59 57 50 48 48 49 49 51 54 56 57 59 59 59 60 61 62 62 63 64 65 66 68 69 70 71 71 70 70 70 70 71 72 72 72 73 75 76 77 77 76 75 74 74 75 75 75 76 77 78 78 77 77 79 81 81 81 80 80 82 83 83
59 58 57 58 57 55 55 53 54 55 53 51 52 50 49 50 50 52 55 56 56 57 56 58 60 57 51 49 50 51 53 55 56 57 58 60 60 60 62 63 64 65 66 67 69 72 74 74 75 76 77 77 78 77 78 78 78 78 79 80 82 83 84 84 84 84 82 81 82 83 84 85 85 83 82 81 81 82 84 86 86 86 86 86 86 86
58 57 55 56 57 56 55 54 55 55 54 53 52 51 50 51 51 52 53 53 55 57 55 56 59 59 55 54 54 55 58 58 58 58 58 59 60 61 64 66 68 69 71 73 75 76 78 79 80 81 81 82 83 83 83 84 84 84 85 86 87 88 88 89 90 90 89 87 87 88 89 91 90 89 87 86 86 86 87 88 91 93 94 94 93 92
57 57 56 57 58 58 57 55 54 56 57 56 55 54 54 54 54 55 56 56 59 60 58 57 60 61 59 58 59 60 62 63 63 63 63 63 63 64 66 68 70 72 74 75 77 79 82 85 86 86 86 87 87 88 88 88 88 88 88 88 87 87 88 88 89 89 89 89 89 89 90 91 92 93 93 92 91 91 91 92 93 95 97 98 98 97
58 58 56 57 59 59 58 57 55 57 60 60 58 57 56 56 57 59 62 64 65 65 65 63 64 66 64 62 63 64 67 69 68 68 70 70 70 70 70 72 73 75 77 79 81 84 86 86 86 87 88 89 90 91 92 92 93 93 93 93 93 93 94 94 95 96 96 96 97 97 97 97 98 98 98 98 98 98 98 99 99 99 100 101 102 102
58 59 57 58 60 60 59 59 57 58 61 61 61 60 58 58 60 62 65 66 65 67 69 66 65 67 67 64 64 66 68 70 71 71 72 73 73 74 74 75 76 78 79 81 82 83 83 84 84 85 87 88 90 91 92 94 95 96 96 97 98 99 100 101 101 102 102 102 102 103 103 103 103 102 101 101 101 101 101 102 102 103 103 104 104 105
59 60 58 59 61 60 59 60 59 60 62 62 62 62 61 61 62 63 66 67 66 68 70 68 66 68 68 66 67 68 69 71 72 72 72 73 74 74 75 75 76 78 79 80 81 82 83 84 85 86 87 89 90 92 93 94 95 96 97 98 99 100 101 102 103 103 104 104 105 105 105 106 106 105 105 104 103 103 102 102 102 103 103 103 104 104
61 61 60 61 62 61 60 60 61 62 63 64 64 64 63 63 64 65 66 66 66 69 70 69 70 71 69 68 70 70 71 72 73 74 74 74 75 76 77 78 79 80 81 82 84 85 85 86 88 89 90 92 93 94 95 96 97 98 99 100 100 101 102 102 103 103 104 104 105 106 106 107 107 107 107 107 107 106 106 105 104 104 103 103 103 102
62 62 62 63 64 63 61 61 62 63 64 65 65 64 64 64 65 65 65 65 66 69 69 70 73 73 71 71 72 73 73 74 75 76 76 77 78 78 79 81 82 84 85 87 88 89 89 90 91 92 94 95 96 97 98 98 99 100 101 102 102 102 103 103 103 104 104 104 105 105 106 106 107 107 107 107 107 108 108 108 107 107 106 106 105 104
62 63 63 64 66 65 62 62 65 64 65 67 66 64 63 63 64 64 64 65 67 69 70 72 74 75 73 74 74 75 75 76 76 78 79 81 82 83 84 85 86 87 89 90 91 92 92 92 93 94 94 95 96 97 98 98 99 100 101 101 101 101 101 102 102 103 103 104 104 105 105 106 106 107 107 107 107 108 108 108 109 109 109 109 109 109
62 64 64 64 67 66 62 63 65 65 67 69 66 63 61 62 64 66 66 67 68 70 72 74 75 76 76 77 77 78 79 80 80 81 83 85 86 87 87 87 88 89 90 90 91 90 91 91 91 91 91 91 91 92 92 93 94 95 96 96 96 96 97 97 98 99 99 100 101 102 103 104 104 105 106 106 107 108 108 109 109 109 110 111 112 112
62 64 64 64 66 66 63 63 66 68 70 69 65 62 63 65 67 69 69 69 69 71 73 76 77 79 80 80 80 81 82 83 83 84 85 86 87 88 88 88 89 89 88 87 86 85 84 83 83 82 82 82 82 83 83 85 86 87 88 89 90 90 91 91 92 93 94 95 95 96 98 99 100 101 102 103 104 105 106 107 108 108 109 110 111 112
62 63 64 64 66 66 64 64 68 71 71 69 66 65 66 68 69 70 71 70 71 73 75 77 79 80 81 82 82 82 82 82 83 84 84 84 85 85 85 85 84 82 80 78 77 75 74 73 72 73 73 75 76 76 77 77 78 80 81 83 84 85 86 87 87 88 89 89 90 91 92 93 95 96 97 98 99 100 101 102 104 105 106 107 108 109
61 62 63 64 65 66 66 67 71 73 71 69 69 69 68 69 70 71 73 73 72 74 76 79 80 81 83 83 82 82 81 81 81 81 80 79 79 78 77 75 73 72 70 69 68 66 65 65 65 67 68 70 71 72 72 73 73 74 75 77 78 79 80 81 82 83 84 84 84 85 86 87 89 90 91 91 92 93 94 95 97 98 99 101 102 102
60 61 63 64 65 66 68 69 72 73 73 71 70 70 71 70 70 73 76 77 75 75 78 80 81 81 82 81 81 80 79 79 78 76 74 73 71 69 67 65 64 63 62 61 61 60 60 61 62 63 64 65 66 67 68 68 69 70 70 71 72 74 75 76 77 78 79 80 80 81 82 83 84 85 85 86 88 88 89 90 91 91 93 94 95 96
61 62 63 66 67 67 68 71 73 74 75 73 71 72 74 73 73 76 78 79 78 77 78 79 78 77 77 76 76 76 75 75 73 69 67 66 65 63 61 59 58 57 57 57 56 56 57 58 59 60 61 62 63 64 65 66 66 67 68 69 70 71 72 74 75 76 77 78 79 80 80 81 83 83 84 84 85 86 87 87 88 88 89 91 92 92
63 65 65 67 69 68 69 72 74 75 76 74 73 74 75 75 76 76 78 80 79 77 75 75 74 74 73 71 71 70 69 69 66 62 61 61 60 58 57 56 55 55 54 54 54 54 55 56 57 58 59 61 62 63 64 65 65 66 67 68 70 71 73 74 75 76 77 78 79 80 81 81 82 83 83 83 83 84 85 85 85 86 87 88 89 90
64 67 68 69 70 69 71 74 75 76 75 75 76 76 75 76 76 75 77 78 75 72 71 71 70 70 68 66 66 65 63 62 60 58 57 56 55 54 54 54 54 53 53 53 53 54 54 55 56 57 59 60 61 62 63 64 65 67 68 69 71 73 74 75 76 77 78 78 79 79 80 81 81 82 82 82 82 82 82 83 83 84 84 86 87 88
65 68 69 70 70 71 73 75 77 76 76 76 77 77 75 75 74 73 72 70 66 66 67 66 65 64 63 62 62 60 59 58 57 55 53 52 52 52 53 54 54 53 53 53 53 53 53 54 56 57 58 60 61 62 64 65 66 68 69 71 72 73 74 75 76 76 77 77 78 79 80 81 81 81 81 81 81 80 79 80 80 80 80 81 82 83
67 68 69 70 71 72 73 75 78 79 78 77 76 76 75 73 71 68 64 61 60 61 62 61 60 60 59 59 58 57 55 54 53 52 51 51 52 52 52 53 53 52 52 52 52 52 53 55 57 59 60 62 63 65 66 67 67 68 69 71 72 73 74 75 76 76 77 77 78 78 79 79 79 79 78 77 77 75 74 73 73 72 72 72 72 72
68 69 69 69 70 71 74 77 79 79 78 75 74 73 72 70 65 61 58 58 58 57 57 57 57 56 56 56 55 53 52 51 51 51 51 52 52 52 52 51 50 51 51 52 53 54 56 58 59 61 62 64 65 66 66 67 67 68 69 70 71 72 74 75 76 76 76 76 76 76 76 76 75 74 72 70 69 67 64 62 62 62 62 62 63 64
69 69 68 68 70 72 75 78 79 78 76 74 72 69 66 63 59 56 56 56 57 56 56 56 55 54 54 54 52 51 50 49 50 50 51 51 51 51 50 50 50 52 53 54 56 57 58 60 61 62 63 64 64 65 65 66 66 67 68 69 71 72 73 73 74 74 73 73 73 73 72 70 68 65 63 61 59 57 55 54 54 55 56 58 60 61
69 67 67 69 71 73 74 76 76 73 71 69 67 63 60 57 55 54 54 55 55 56 55 54 53 52 51 51 51 50 49 48 48 49 49 49 49 49 50 51 53 54 55 57 58 59 60 61 62 62 62 62 63 63 64 65 66 66 67 69 70 71 71 71 71 71 70 69 68 67 64 61 59 58 56 54 51 49 48 49 50 52 54 57 58 59
68 67 68 71 72 72 73 73 70 66 62 59 57 55 54 53 52 51 52 53 53 53 52 52 52 50 49 50 50 50 49 48 47 47 48 48 49 50 52 53 55 56 58 59 60 60 61 61 61 61 61 61 61 62 63 64 64 65 66 66 67 68 68 68 67 66 64 63 61 60 58 55 54 52 49 47 45 45 46 48 50 52 54 56 57 58
68 66 68 72 72 73 74 70 63 58 55 51 51 52 52 52 51 50 50 50 50 50 50 50 50 49 49 50 50 50 50 49 48 48 48 49 51 52 54 55 57 58 59 60 60 60 60 60 60 60 60 59 60 60 61 61 62 63 64 64 65 65 64 63 61 59 57 57 56 56 54 52 48 45 43 42 43 44 46 48 50 52 53 54 55 57
67 66 69 71 71 71 70 64 56 51 49 47 48 50 50 49 49 48 48 48 48 48 48 49 49 49 49 49 50 50 50 49 49 49 50 51 52 54 56 57 58 59 60 60 60 60 60 59 59 59 59 58 58 58 58 59 60 62 62 63 63 61 58 56 54 53 53 54 54 53 51 48 45 42 41 42 43 44 46 48 49 50 51 52 55 59
66 67 68 67 66 65 63 57 51 49 48 47 46 47 47 48 48 48 48 48 48 47 48 49 50 50 50 50 50 50 50 50 50 50 51 53 54 55 57 58 59 59 59 59 59 59 59 59 58 58 56 56 56 56 56 58 59 60 61 60 58 55 51 49 48 48 49 50 50 49 48 46 43 42 42 42 43 44 46 47 48 48 49 52 57 60
65 65 63 59 59 59 56 52 49 49 49 47 44 45 46 48 49 49 48 48 48 48 49 49 50 50 51 51 51 51 50 50 51 52 53 54 55 57 58 58 59 59 59 60 60 59 58 57 56 55 53 53 53 54 55 57 58 59 59 56 51 48 46 44 43 43 44 44 45 45 44 42 41 41 42 42 42 43 43 45 47 49 50 52 56 57
60 60 57 53 54 54 51 49 48 49 49 47 45 44 45 47 48 49 48 47 48 49 50 50 51 52 52 52 52 52 51 51 52 53 54 55 56 57 58 59 60 60 59 59 59 58 56 55 53 52 51 51 52 54 55 56 58 57 54 49 45 43 41 39 38 38 39 40 41 41 40 38 38 38 39 40 40 41 41 42 45 48 50 52 54 53
Wind_Direction
280 280 281 282 281 280 280 280 280 281 281 281 282 283 284 285 286 288 288 287 287 287 288 289 289 287 287 289 290 291 292 293 294 294 293 292 292 291 291 290 289 288 286 284 284 283 282 281 279 278 277 275 274 273 273 272 272 272 271 270 269 267 264 261 259 258 258 260 263 265 266 266 265 265 264 264 263 262 262 263 263 264 265 265 266 267
279 278 280 281 279 278 278 279 280 280 281 282 282 282 282 283 285 287 287 287 287 287 287 289 289 288 288 289 289 290 292 293 292 291 291 291 290 289 288 288 288 287 285 283 283 282 280 278 277 275 273 273 272 271 271 270 269 269 268 268 267 267 265 261 258 257 258 259 262 264 265 265 265 264 264 263 262 261 262 262 262 263 264 265 265 266
280 279 279 279 280 280 279 277 277 278 280 281 282 283 284 285 286 286 287 288 289 289 290 290 290 290 291 292 292 293 293 292 291 291 291 291 290 289 288 287 285 283 282 280 279 279 277 275 274 272 271 270 270 269 269 268 267 266 266 266 266 266 265 263 260 259 259 260 261 262 262 262 263 264 264 264 263 263 263 263 263 264 265 265 266 267
280 280 280 279 280 280 279 278 277 277 278 279 280 282 283 284 285 286 287 288 289 291 291 291 291 292 293 295 297 300 300 298 297 296 296 294 292 292 292 290 287 284 281 277 275 273 272 271 269 269 269 268 267 267 266 265 264 264 265 265 265 264 263 262 261 259 258 259 259 259 260 260 260 261 263 264 265 265 265 264 265 266 266 266 267 267
277 279 280 281 281 280 278 277 277 277 278 278 279 281 282 283 284 285 287 288 289 290 290 291 292 293 294 296 300 305 304 302 302 304 306 303 302 303 303 302 295 284 277 272 270 268 267 266 265 265 265 266 266 265 264 264 263 263 263 264 264 263 261 260 259 257 256 256 256 257 257 258 258 258 258 259 261 263 264 265 267 269 269 268 268 267
277 277 278 279 281 282 281 280 279 279 280 280 281 282 283 284 284 285 286 287 288 288 288 290 291 292 294 297 301 303 301 300 301 305 306 305 307 310 311 312 300 273 267 267 261 260 264 266 267 266 264 265 266 267 267 265 264 263 262 262 261 260 258 257 256 255 254 254 254 255 255 257 257 257 257 258 260 262 264 267 269 271 272 272 271 269
278 278 278 278 278 280 282 283 283 283 283 283 284 285 285 286 286 287 287 287 287 288 289 290 292 293 295 299 302 300 298 296 297 300 300 301 307 312 315 313 288 259 258 258 250 251 264 270 271 271 269 268 268 270 272 270 267 264 262 259 257 255 254 254 254 253 252 252 252 253 254 256 258 260 262 264 267 268 270 272 274 276 277 277 276 274
280 280 280 279 279 280 282 283 284 284 284 285 286 286 286 287 287 287 287 287 288 288 289 290 292 293 295 298 300 299 297 295 295 297 298 302 308 312 314 303 269 257 251 248 250 259 272 276 274 273 272 271 271 271 273 274 272 268 264 260 256 253 253 253 255 256 256 256 255 255 255 257 259 262 265 267 270 273 274 275 277 278 280 280 279 278
281 281 279 279 279 280 281 280 280 281 283 285 286 286 287 287 287 287 287 287 287 288 289 291 292 292 293 294 296 296 295 295 296 298 299 303 308 310 310 293 257 251 249 251 262 274 283 283 276 273 272 270 269 269 270 271 272 271 269 265 261 257 255 254 257 261 263 263 262 261 261 261 262 265 267 269 271 274 275 277 278 278 279 280 279 278
281 280 278 277 277 277 276 276 278 279 281 282 284 285 286 286 286 286 286 286 286 287 289 291 291 291 291 292 292 292 292 292 294 298 299 302 306 307 306 290 257 252 253 255 268 283 290 288 281 276 273 271 269 267 267 267 268 269 269 268 266 263 261 259 259 262 266 267 266 266 266 265 266 267 269 270 272 273 275 276 277 278 278 279 279 277
279 279 278 278 276 275 276 276 277 279 280 283 285 285 285 286 286 285 285 285 285 286 288 288 288 289 289 288 288 288 289 289 291 296 298 300 302 300 298 284 259 252 254 259 274 287 290 288 284 279 275 273 271 269 268 267 267 267 267 266 266 266 265 264 264 265 268 269 269 268 268 267 267 268 269 270 271 272 274 275 277 278 279 280 280 278
278 279 278 277 277 277 278 279 280 281 282 284 285 285 285 285 285 284 283 282 282 283 284 284 284 284 283 283 284 285 285 286 289 293 296 297 297 295 293 284 264 250 251 265 280 287 286 286 286 283 279 276 273 271 270 269 267 267 267 267 267 267 267 266 267 268 269 271 272 272 271 270 269 270 271 272 272 273 274 275 276 278 279 280 280 279
280 279 277 277 277 279 280 281 282 283 283 283 284 284 284 284 283 281 281 281 281 282 282 281 280 280 281 281 283 284 286 287 288 289 291 293 293 291 288 283 272 259 257 269 282 285 284 285 284 282 281 279 275 272 271 270 269 268 267 268 269 269 269 269 269 270 271 273 274 275 275 274 273 273 274 274 275 275 275 275 276 277 277 278 278 278
279 278 278 279 279 280 282 283 284 283 283 283 283 283 282 282 281 280 281 282 283 283 282 281 281 281 282 283 285 287 288 289 288 288 288 290 290 289 287 283 279 273 271 276 283 285 285 285 283 281 279 278 276 273 270 268 267 268 268 269 270 271 272 272 273 273 274 275 276 277 277 277 276 276 276 276 276 276 276 276 276 276 276 276 276 276
279 279 279 280 280 281 282 282 281 282 282 281 281 281 281 281 282 282 282 282 281 280 279 280 282 283 285 286 287 288 289 290 290 290 290 289 288 287 286 284 282 281 281 282 283 284 284 283 282 280 278 277 276 274 272 269 266 266 267 269 271 272 273 274 275 275 275 276 277 278 278 278 277 277 277 277 277 276 276 276 276 276 276 275 275 274
278 279 280 280 279 279 279 279 279 279 280 280 280 280 282 283 283 282 281 280 280 279 278 279 281 283 285 285 285 285 286 287 287 288 287 286 285 284 282 282 282 281 281 281 281 281 281 280 279 279 278 278 278 277 275 273 270 267 266 267 268 270 271 272 273 274 274 275 275 275 275 276 276 277 277 277 277 276 276 276 276 275 274 274 273 272
278 279 280 280 279 280 280 280 281 282 283 282 282 282 283 283 281 280 280 280 279 278 279 281 281 282 283 283 283 284 284 284 284 283 282 281 280 280 279 279 279 278 278 277 278 278 278 278 278 277 278 279 279 279 278 275 273 270 267 266 266 267 267 268 269 270 270 271 272 272 273 273 273 274 274 275 275 275 275 275 275 274 274 273 271 270
280 280 280 279 280 281 281 282 284 284 285 285 285 285 284 281 280 280 279 279 279 278 280 282 281 281 282 282 283 283 282 282 283 282 281 280 279 278 277 276 276 275 275 274 274 274 274 275 276 278 279 279 279 279 278 276 275 272 270 268 268 268 268 267 267 267 267 268 268 269 269 269 269 270 271 272 272 272 273 273 273 273 272 271 270 268
280 280 279 279 280 281 282 283 284 284 284 284 285 284 283 281 281 280 278 278 279 280 281 282 281 281 282 282 282 282 282 282 281 279 279 278 277 277 276 275 274 273 273 273 272 272 273 273 275 277 278 279 278 278 277 276 275 273 272 271 270 270 269 269 268 269 269 269 268 267 266 266 266 266 267 268 268 269 269 269 270 270 269 269 268 267
280 281 280 280 281 282 283 283 283 283 284 283 282 282 281 281 280 279 277 278 280 280 281 282 281 282 284 283 281 281 282 280 278 277 276 275 274 273 272 271 271 272 272 273 273 274 275 276 277 277 276 276 277 277 278 277 277 277 276 275 274 273 272 271 270 270 271 272 272 272 271 270 269 268 267 267 267 268 268 268 267 266 266 265 264 264
282 283 283 283 282 282 283 284 283 283 283 282 282 281 281 281 280 278 276 277 278 278 279 279 279 281 282 281 279 279 277 276 276 276 274 273 273 272 271 271 271 271 272 273 274 275 276 278 278 277 276 276 276 276 277 277 277 277 276 276 275 275 273 271 270 270 271 272 273 272 271 269 268 268 268 269 269 267 266 265 264 264 263 262 261 261
286 286 285 285 284 284 285 285 284 283 283 282 281 281 281 280 279 277 277 279 279 276 276 277 277 278 279 279 278 276 274 274 274 273 271 271 271 271 271 272 273 273 272 273 274 275 276 277 277 277 276 276 275 273 273 273 273 273 273 273 273 274 273 272 273 273 273 274 272 269 266 263 262 263 265 266 266 264 261 259 257 258 258 258 258 258
285 285 284 285 284 284 284 283 283 283 283 281 280 280 279 278 277 277 279 281 280 276 277 277 276 277 279 278 274 273 273 273 271 270 270 270 270 269 269 270 271 272 272 272 272 273 274 276 276 276 276 276 275 274 272 271 271 271 272 272 271 271 271 271 271 271 271 270 270 269 267 266 264 264 264 264 263 262 260 258 256 255 255 255 256 257
282 282 282 282 282 282 282 282 282 282 281 279 279 279 278 277 277 277 278 279 278 276 278 277 275 277 278 275 272 273 274 272 269 268 267 267 267 267 268 268 269 269 269 269 269 271 273 275 276 276 275 275 275 275 274 273 273 272 271 271 271 271 271 271 270 270 270 268 268 268 269 270 270 269 269 268 266 265 263 260 259 259 259 259 260 260
279 279 279 279 280 280 281 282 282 281 279 277 277 276 275 276 276 276 276 276 275 275 275 274 273 276 277 276 275 277 277 274 271 269 268 267 266 267 268 268 267 267 267 267 268 270 273 276 277 277 276 276 275 274 274 274 274 274 273 273 273 273 272 272 271 271 271 270 269 269 269 270 271 272 272 271 270 269 267 264 263 263 264 265 266 266
277 276 277 278 278 279 281 282 281 279 277 275 274 274 274 275 276 275 274 272 271 272 272 270 273 276 276 276 277 277 276 274 272 272 271 270 268 268 268 267 266 266 266 268 269 271 274 276 277 277 277 277 276 276 275 275 275 275 275 275 274 274 273 273 272 272 272 272 272 271 271 272 272 273 273 272 271 270 269 268 267 266 267 267 268 269
274 274 275 276 276 278 280 280 279 278 276 275 275 275 275 276 276 275 275 274 274 273 272 272 274 275 274 275 275 275 275 274 273 272 271 270 270 269 268 268 267 267 268 270 272 274 276 277 277 277 277 277 277 277 277 277 277 277 277 277 276 276 275 275 275 276 276 276 275 275 275 275 274 274 274 274 274 273 272 271 270 269 268 268 268 268
273 273 275 275 275 276 277 277 277 275 275 275 275 275 276 276 276 276 276 276 277 276 275 276 277 276 276 276 275 274 274 275 275 274 273 272 272 272 271 271 271 271 272 273 274 275 276 277 277 277 277 277 277 277 277 277 277 277 277 277 277 277 277 276 276 277 277 277 277 276 276 276 276 275 275 275 274 274 274 273 273 272 271 270 270 269
272 273 275 274 273 274 275 275 275 274 273 274 275 275 276 276 277 277 276 277 277 277 278 279 278 276 277 277 276 275 274 274 275 275 275 275 275 274 274 274 274 274 274 275 275 276 276 276 276 276 276 276 276 276 276 276 276 276 276 276 276 276 276 276 276 276 276 276 276 276 276 276 276 276 275 275 275 274 273 273 273 272 272 272 271 271
272 273 274 273 272 273 274 275 275 274 273 273 274 274 276 277 278 277 276 277 278 278 280 280 279 278 278 278 277 276 275 275 276 276 276 276 276 277 277 277 277 277 277 276 276 276 276 276 276 276 275 275 275 274 274 274 274 275 275 275 275 275 276 276 276 276 276 277 277 277 277 277 276 276 276 276 275 275 274 273 273 272 271 271 271 270
273 274 274 274 274 273 274 275 274 273 274 273 273 275 277 279 279 278 278 278 278 279 280 281 280 279 279 279 278 277 277 277 277 278 278 278 278 278 278 278 278 278 278 278 278 277 277 276 276 275 275 275 274 274 274 274 274 274 274 275 275 275 275 275 276 276 276 276 276 277 277 277 277 277 277 276 276 276 275 275 274 273 272 271 270 270
273 274 274 275 275 275 275 275 274 274 274 273 274 278 280 280 278 278 278 278 278 279 280 279 280 280 281 279 279 279 279 279 279 280 280 280 280 279 279 279 279 279 279 279 279 278 278 277 276 276 276 275 275 275 275 275 275 275 275 275 276 276 276 276 276 276 276 276 276 276 277 277 277 276 276 276 276 276 276 275 275 275 274 273 272 271
274 274 275 275 275 276 276 275 274 274 272 273 277 281 280 278 277 277 277 278 279 280 281 281 282 282 282 281 281 281 281 282 282 282 282 282 281 281 281 280 280 280 280 280 280 280 280 280 280 279 278 278 278 277 277 277 277 277 277 277 277 277 277 278 278 278 278 277 277 277 277 277 277 277 277 277 277 277 276 276 276 276 275 275 274 273
274 275 276 276 276 276 276 276 275 274 274 277 281 281 279 278 279 279 280 281 282 282 283 284 284 284 283 284 284 284 284 284 284 283 284 283 283 282 282 282 282 282 282 282 282 283 283 283 283 282 282 281 280 280 279 279 279 279 279 279 279 279 279 279 279 279 279 278 278 278 278 278 278 277 277 277 277 277 276 276 276 276 276 276 275 275
275 276 276 276 277 278 278 278 277 277 279 282 282 280 280 280 281 282 283 283 283 283 284 284 285 284 284 285 285 285 285 285 285 285 285 284 283 283 283 284 284 284 285 285 284 284 284 284 284 284 283 283 282 282 281 281 281 281 281 282 282 282 282 282 282 281 281 281 280 280 280 280 279 279 278 278 277 277 277 276 276 276 276 275 275 275
276 276 277 277 278 279 280 279 279 280 282 283 283 284 283 283 284 284 284 283 283 284 284 284 284 284 284 285 285 285 284 284 284 285 284 283 283 284 285 286 286 286 285 285 284 284 284 283 283 282 282 282 283 283 282 282 282 282 282 282 283 283 283 283 283 283 283 283 283 283 282 282 282 281 281 280 279 279 278 278 277 277 276 276 275 275
276 277 277 278 278 279 280 281 281 283 284 284 285 286 286 286 286 286 285 284 284 284 284 284 284 284 285 286 286 286 285 285 285 286 285 285 286 286 286 287 286 286 285 284 284 284 283 282 282 282 283 284 284 284 284 284 284 284 284 284 285 285 285 285 285 285 285 285 285 284 284 284 284 283 283 282 281 281 280 280 279 279 278 278 277 277
277 277 278 278 279 280 281 282 283 284 285 287 288 288 287 288 288 287 286 285 285 286 285 285 285 285 285 285 285 285 286 286 287 288 287 287 287 287 287 286 286 285 284 284 284 284 284 283 284 285 285 285 285 285 286 286 286 287 287 287 286 286 286 286 286 286 286 286 286 286 286 285 285 284 284 283 283 282 282 281 281 280 280 279 279 278
278 278 278 278 279 281 282 283 284 285 287 289 289 289 289 289 288 287 286 286 287 288 286 286 285 285 284 285 285 285 286 287 288 288 288 288 288 288 287 286 285 285 285 286 286 286 285 286 286 285 285 285 286 286 287 287 288 288 288 288 288 287 287 287 287 287 287 287 287 287 287 286 286 286 285 285 284 284 283 283 282 281 280 279 279 278
279 279 279 279 281 283 284 284 284 286 288 290 290 289 289 289 288 286 285 287 289 287 285 285 284 284 285 285 285 286 287 288 289 289 288 288 288 288 287 287 287 288 288 288 287 287 287 287 286 285 286 286 286 287 287 288 288 288 289 289 288 288 289 289 289 289 289 289 289 289 289 288 288 288 287 287 286 285 285 284 283 282 281 280 279 278
279 279 280 281 283 284 285 286 286 287 288 288 288 288 288 288 287 286 286 287 287 285 284 284 283 284 285 286 286 287 288 289 290 290 289 288 287 287 287 288 289 290 289 288 288 288 288 287 287 287 287 288 288 288 289 289 289 289 289 289 290 290 290 290 290 290 290 290 290 290 291 290 290 290 289 289 288 287 287 286 285 284 283 282 281 280
280 280 281 283 285 286 287 287 287 287 288 288 287 287 288 287 286 286 286 285 284 283 284 284 284 285 286 286 287 288 290 290 290 289 288 287 287 288 288 289 290 290 289 289 289 289 288 288 288 289 289 290 290 290 290 290 291 291 291 291 291 292 292 292 292 292 292 292 293 293 292 292 292 292 291 291 290 289 288 288 287 287 287 286 285 285
280 281 282 285 287 287 287 286 286 286 288 288 287 287 287 287 286 286 285 284 283 284 285 285 286 286 286 287 288 289 289 289 288 287 288 288 288 289 290 290 290 290 290 290 290 289 289 289 290 290 291 291 292 292 292 293 293 293 293 293 293 293 293 294 294 294 295 295 295 295 295 294 294 294 293 293 292 292 292 292 291 292 292 291 291 290
280 282 285 286 287 286 285 286 286 286 287 287 286 286 287 286 285 285 285 285 286 286 286 287 287 288 288 289 289 289 288 287 287 288 288 289 290 291 291 292 291 291 291 291 291 291 291 291 292 292 293 293 293 294 294 294 294 294 295 295 295 295 296 296 297 298 298 298 298 298 297 297 296 296 295 295 295 295 296 295 295 295 295 295 295 294
282 284 285 285 285 284 284 285 285 285 286 288 288 287 286 285 285 286 286 287 287 288 289 289 290 291 292 291 290 290 289 289 289 290 290 291 292 292 293 293 292 292 293 292 292 292 292 293 293 294 294 294 295 295 295 295 296 296 297 297 297 298 298 299 300 300 301 301 300 300 299 298 298 297 297 297 297 297 297 297 297 298 298 297 296 295
283 285 285 286 285 284 283 284 283 282 285 287 286 285 284 284 284 285 286 287 288 289 290 291 292 293 292 291 291 291 291 291 292 292 292 293 293 293 293 293 293 294 294 293 293 293 294 294 295 295 295 295 295 296 296 297 298 298 299 299 299 300 301 302 302 303 303 303 302 301 300 300 299 299 298 297 297 298 298 299 301 301 301 300 299 299
284 286 286 286 285 284 284 284 282 282 284 283 281 281 282 283 284 284 284 285 286 287 289 291 291 292 291 291 291 291 292 293 293 293 293 293 293 293 294 294 294 294 294 294 294 295 295 295 295 295 295 296 296 296 297 298 299 300 300 301 302 302 303 304 305 305 305 304 303 303 302 302 300 298 297 297 298 300 301 303 304 305 304 303 302 302
286 286 285 286 285 284 284 283 282 282 281 278 277 278 281 282 283 284 284 285 286 288 289 289 288 288 288 289 290 291 292 294 294 294 294 294 294 295 295 295 295 295 295 295 295 295 295 295 295 295 296 296 296 297 298 300 301 301 302 303 304 305 306 306 307 307 307 306 306 306 305 304 301 299 298 299 300 301 303 304 306 307 307 306 306 306
286 286 288 287 285 282 281 282 283 282 278 275 275 277 279 280 281 283 285 287 288 288 288 288 288 288 288 288 290 291 292 293 293 294 294 295 295 295 296 296 296 296 297 297 297 296 296 295 295 295 296 296 296 298 299 301 302 303 304 306 306 306 307 307 308 308 309 309 310 309 308 306 303 300 299 299 300 301 304 306 307 309 309 309 311 311
288 288 288 285 281 280 281 283 285 284 282 280 278 277 278 281 282 283 284 286 287 287 286 286 287 287 288 290 291 292 292 293 293 294 294 295 296 296 296 297 297 297 297 297 297 297 296 295 295 296 296 296 297 299 301 303 304 305 306 307 306 306 306 307 308 310 311 313 314 313 310 307 304 301 299 299 299 301 304 307 309 310 311 313 315 317
288 286 285 281 280 282 284 285 286 286 285 284 282 279 279 281 282 283 285 286 286 286 286 286 287 287 289 290 292 292 293 293 293 294 295 295 296 296 297 297 297 297 297 297 296 296 295 295 295 296 296 296 298 300 302 304 305 306 307 306 304 304 305 307 309 311 315 319 321 319 316 313 308 304 302 301 301 303 305 307 310 312 313 316 319 320
Height
5804 5801 5797 5799 5801 5802 5801 5799 5797 5797 5796 5796 5796 5794 5793 5793 5792 5794 5795 5793 5793 5791 5790 5790 5790 5789 5789 5789 5789 5789 5789 5789 5789 5788 5788 5787 5785 5784 5784 5784 5784 5783 5782 5782 5781 5781 5780 5780 5779 5778 5777 5777 5776 5776 5776 5776 5776 5775 5776 5776 5776 5776 5776 5775 5775 5775 5774 5774 5774 5774 5774 5774 5774 5774 5774 5774 5774 5774 5775 5775 5776 5777 5778 5778 5777 5776
5799 5797 5794 5794 5795 5797 5797 5795 5792 5791 5791 5790 5790 5789 5788 5788 5788 5788 5787 5786 5786 5785 5785 5785 5783 5782 5783 5784 5784 5785 5785 5784 5783 5783 5783 5782 5780 5780 5780 5780 5779 5779 5778 5777 5777 5776 5775 5775 5774 5773 5772 5772 5772 5771 5771 5771 5770 5770 5770 5770 5771 5771 5771 5771 5771 5770 5770 5770 5770 5770 5769 5769 5769 5769 5769 5769 5769 5768 5769 5769 5770 5771 5771 5771 5771 5771
5792 5791 5791 5789 5789 5792 5792 5790 5788 5787 5787 5785 5784 5783 5782 5783 5783 5782 5781 5780 5779 5779 5779 5779 5777 5776 5777 5777 5778 5779 5780 5779 5779 5779 5778 5777 5775 5775 5775 5775 5775 5774 5774 5773 5772 5772 5771 5770 5769 5768 5768 5767 5767 5767 5767 5766 5765 5765 5765 5765 5765 5765 5766 5766 5766 5766 5766 5766 5765 5765 5765 5765 5764 5764 5764 5764 5764 5764 5764 5764 5764 5765 5765 5765 5766 5765
5786 5786 5786 5784 5785 5787 5785 5784 5784 5783 5783 5782 5780 5779 5778 5779 5778 5777 5776 5776 5775 5773 5772 5772 5771 5771 5772 5771 5771 5772 5770 5770 5772 5772 5772 5772 5770 5769 5770 5770 5770 5769 5769 5769 5768 5767 5766 5765 5764 5764 5763 5763 5762 5762 5762 5761 5760 5760 5760 5760 5760 5760 5760 5760 5761 5761 5761 5761 5760 5760 5760 5760 5760 5760 5760 5759 5759 5759 5759 5759 5759 5759 5760 5760 5760 5760
5783 5782 5781 5779 5780 5780 5780 5780 5779 5778 5778 5778 5777 5776 5775 5775 5774 5773 5772 5771 5771 5770 5767 5765 5764 5765 5767 5767 5768 5767 5762 5761 5762 5763 5763 5763 5763 5763 5763 5763 5764 5764 5764 5763 5763 5763 5762 5761 5760 5760 5759 5758 5758 5757 5757 5756 5756 5755 5755 5755 5755 5755 5755 5755 5755 5755 5755 5756 5756 5756 5755 5755 5755 5755 5755 5755 5755 5754 5754 5754 5754 5754 5754 5754 5754 5754
5779 5779 5779 5777 5775 5773 5774 5774 5774 5774 5774 5773 5773 5773 5772 5772 5771 5770 5769 5767 5766 5765 5764 5762 5759 5760 5763 5765 5766 5764 5759 5757 5757 5756 5757 5756 5756 5757 5757 5757 5757 5757 5758 5758 5758 5758 5758 5758 5758 5757 5756 5755 5754 5753 5752 5752 5751 5751 5750 5750 5750 5750 5750 5750 5750 5750 5750 5751 5751 5750 5750 5750 5750 5750 5750 5750 5750 5750 5749 5749 5749 5749 5749 5749 5749 5749
5774 5775 5775 5774 5773 5771 5769 5769 5769 5769 5769 5769 5769 5769 5768 5768 5767 5766 5765 5764 5762 5761 5760 5759 5755 5754 5758 5761 5761 5758 5755 5755 5754 5753 5753 5751 5752 5753 5752 5752 5752 5753 5753 5753 5753 5754 5754 5755 5755 5754 5753 5752 5751 5750 5749 5748 5747 5747 5746 5746 5745 5745 5745 5745 5745 5745 5745 5745 5745 5745 5745 5745 5745 5745 5745 5745 5745 5745 5745 5744 5744 5744 5744 5743 5743 5743
5769 5770 5770 5769 5769 5768 5768 5767 5765 5764 5763 5764 5764 5764 5764 5763 5763 5761 5760 5759 5758 5757 5757 5756 5753 5751 5753 5756 5756 5751 5748 5750 5750 5748 5748 5748 5749 5749 5749 5749 5748 5748 5749 5749 5749 5749 5750 5751 5750 5750 5750 5749 5748 5746 5745 5744 5744 5743 5742 5741 5741 5740 5740 5741 5741 5741 5740 5740 5740 5740 5740 5740 5740 5739 5739 5739 5739 5739 5739 5739 5739 5739 5738 5738 5737 5737
5764 5764 5764 5764 5764 5764 5764 5762 5761 5759 5759 5759 5759 5758 5758 5758 5757 5756 5755 5754 5753 5752 5752 5753 5750 5748 5750 5752 5752 5746 5741 5743 5744 5743 5743 5745 5745 5745 5746 5747 5745 5744 5744 5743 5742 5742 5743 5745 5745 5745 5744 5744 5743 5742 5741 5741 5740 5739 5738 5737 5737 5736 5736 5736 5736 5736 5736 5735 5735 5735 5735 5735 5734 5734 5734 5733 5733 5733 5733 5733 5732 5733 5732 5732 5731 5731
5758 5758 5758 5758 5759 5758 5758 5757 5756 5755 5754 5754 5754 5754 5753 5752 5751 5750 5749 5749 5747 5746 5749 5749 5745 5743 5745 5747 5747 5743 5738 5738 5739 5738 5738 5741 5742 5742 5741 5742 5741 5739 5738 5737 5735 5735 5735 5736 5738 5739 5738 5738 5737 5737 5736 5735 5734 5734 5733 5733 5732 5731 5731 5730 5730 5730 5730 5730 5730 5729 5729 5729 5729 5728 5728 5727 5727 5726 5726 5726 5725 5725 5725 5725 5724 5724
5753 5753 5752 5753 5753 5752 5753 5752 5751 5750 5749 5750 5750 5748 5748 5747 5746 5745 5744 5742 5741 5742 5745 5744 5741 5739 5740 5741 5740 5738 5735 5736 5737 5735 5735 5735 5737 5738 5737 5738 5736 5734 5732 5730 5729 5729 5728 5728 5729 5731 5732 5732 5731 5731 5730 5729 5729 5728 5727 5726 5725 5725 5725 5724 5724 5723 5723 5723 5723 5723 5722 5722 5722 5721 5721 5720 5720 5719 5719 5718 5718 5718 5717 5717 5717 5717
5748 5749 5748 5747 5747 5747 5747 5746 5746 5746 5745 5745 5744 5742 5742 5742 5740 5739 5738 5737 5736 5738 5741 5740 5736 5735 5735 5736 5735 5733 5730 5733 5735 5733 5731 5730 5731 5732 5733 5733 5732 5729 5726 5724 5723 5723 5723 5722 5721 5721 5723 5724 5724 5724 5723 5723 5722 5721 5720 5719 5718 5717 5717 5717 5716 5716 5715 5715 5714 5714 5714 5713 5713 5713 5713 5712 5711 5711 5711 5710 5710 5710 5709 5709 5709 5709
5743 5743 5743 5742 5742 5743 5742 5741 5741 5741 5740 5739 5739 5737 5736 5736 5734 5732 5732 5731 5731 5733 5734 5733 5731 5729 5729 5730 5730 5727 5726 5729 5731 5730 5727 5725 5725 5726 5727 5727 5727 5725 5721 5718 5717 5717 5716 5716 5715 5714 5713 5714 5715 5715 5715 5715 5714 5714 5713 5712 5711 5710 5709 5709 5708 5708 5707 5707 5706 5705 5704 5704 5704 5704 5703 5703 5702 5702 5701 5701 5701 5701 5701 5700 5700 5700
5737 5737 5737 5737 5738 5738 5737 5736 5735 5734 5734 5733 5733 5732 5730 5730 5727 5725 5726 5725 5725 5726 5724 5725 5726 5724 5724 5725 5724 5722 5721 5723 5723 5723 5722 5721 5720 5719 5719 5719 5719 5718 5715 5711 5710 5709 5708 5708 5707 5706 5705 5705 5705 5706 5706 5706 5706 5706 5705 5704 5703 5702 5701 5701 5700 5699 5699 5698 5697 5696 5695 5694 5694 5693 5693 5693 5692 5692 5692 5691 5691 5691 5691 5691 5691 5691
5730 5731 5733 5732 5732 5733 5733 5731 5729 5728 5727 5727 5728 5726 5724 5725 5721 5719 5719 5719 5718 5718 5717 5719 5720 5719 5720 5720 5719 5718 5717 5717 5715 5714 5715 5714 5714 5712 5711 5710 5709 5708 5707 5703 5701 5700 5699 5699 5697 5697 5696 5696 5696 5696 5697 5697 5697 5697 5696 5696 5696 5695 5694 5693 5692 5691 5690 5689 5688 5687 5686 5684 5684 5683 5683 5683 5682 5682 5681 5681 5681 5681 5681 5681 5680 5681
5723 5725 5728 5726 5725 5727 5727 5725 5724 5723 5721 5721 5722 5721 5719 5720 5717 5713 5711 5711 5711 5708 5710 5715 5715 5715 5716 5714 5713 5713 5712 5712 5709 5708 5708 5706 5705 5705 5704 5703 5700 5699 5697 5695 5692 5690 5690 5690 5689 5688 5687 5686 5686 5686 5687 5687 5687 5687 5686 5686 5686 5686 5685 5684 5683 5682 5681 5680 5679 5678 5677 5676 5675 5674 5673 5673 5672 5671 5671 5670 5670 5670 5670 5670 5670 5670
5716 5718 5722 5721 5718 5719 5720 5719 5717 5717 5714 5713 5715 5716 5715 5713 5710 5706 5703 5704 5704 5698 5701 5709 5709 5711 5711 5706 5707 5708 5705 5704 5703 5701 5700 5697 5696 5697 5696 5694 5692 5689 5688 5686 5684 5682 5680 5680 5680 5679 5678 5676 5676 5675 5675 5676 5676 5676 5676 5675 5675 5674 5675 5674 5674 5673 5672 5671 5670 5669 5668 5667 5666 5665 5664 5663 5662 5661 5661 5660 5660 5659 5659 5659 5659 5659
5708 5711 5716 5716 5712 5712 5714 5713 5711 5709 5707 5705 5705 5708 5707 5704 5702 5701 5695 5694 5695 5689 5690 5699 5700 5704 5705 5700 5699 5699 5696 5696 5694 5691 5690 5688 5686 5686 5686 5685 5683 5680 5678 5677 5676 5674 5673 5672 5671 5670 5669 5668 5666 5665 5665 5665 5665 5665 5664 5664 5663 5662 5662 5662 5662 5662 5662 5662 5661 5660 5659 5658 5657 5656 5655 5654 5653 5652 5651 5650 5649 5649 5648 5648 5648 5648
5701 5702 5707 5711 5707 5704 5707 5707 5704 5701 5700 5699 5697 5697 5697 5694 5693 5694 5689 5686 5686 5682 5681 5686 5688 5693 5697 5694 5691 5688 5686 5687 5685 5683 5682 5680 5678 5677 5676 5675 5674 5672 5670 5668 5667 5666 5665 5665 5664 5662 5661 5659 5658 5656 5655 5654 5654 5654 5653 5652 5652 5651 5650 5650 5649 5649 5649 5649 5650 5649 5649 5648 5647 5647 5646 5645 5644 5643 5642 5641 5640 5639 5638 5638 5638 5637
5694 5692 5696 5702 5701 5697 5698 5699 5697 5694 5693 5691 5689 5688 5689 5687 5686 5685 5683 5681 5679 5675 5673 5675 5676 5681 5687 5687 5684 5681 5679 5677 5675 5675 5674 5672 5671 5669 5668 5667 5666 5665 5662 5660 5659 5657 5656 5656 5656 5655 5653 5652 5650 5648 5646 5645 5644 5644 5643 5642 5642 5641 5641 5640 5640 5639 5638 5638 5638 5637 5636 5636 5635 5634 5634 5634 5633 5633 5632 5631 5630 5629 5628 5627 5627 5627
5685 5683 5684 5690 5692 5690 5689 5689 5688 5687 5685 5682 5681 5682 5681 5680 5679 5677 5675 5677 5675 5668 5667 5666 5665 5671 5678 5677 5675 5676 5673 5670 5668 5667 5666 5665 5662 5660 5659 5658 5658 5658 5656 5653 5651 5650 5648 5647 5646 5646 5645 5643 5642 5640 5639 5637 5636 5635 5634 5633 5632 5632 5631 5630 5629 5629 5628 5627 5627 5626 5625 5624 5623 5622 5622 5622 5622 5621 5621 5620 5619 5618 5617 5616 5616 5616
5677 5674 5673 5677 5681 5682 5684 5682 5678 5677 5678 5675 5673 5675 5675 5674 5673 5669 5666 5670 5670 5663 5661 5659 5655 5660 5670 5669 5666 5667 5666 5664 5661 5658 5657 5656 5655 5653 5651 5650 5649 5649 5648 5645 5643 5641 5639 5638 5637 5636 5635 5633 5633 5631 5630 5628 5627 5626 5625 5624 5623 5622 5621 5620 5619 5618 5616 5616 5615 5615 5615 5614 5613 5612 5611 5611 5610 5610 5609 5608 5608 5607 5606 5605 5604 5604
5670 5667 5665 5666 5670 5673 5677 5676 5671 5668 5669 5668 5666 5668 5669 5667 5666 5663 5658 5660 5661 5656 5655 5653 5645 5649 5660 5662 5658 5658 5657 5656 5653 5650 5649 5647 5646 5646 5644 5642 5641 5640 5638 5636 5634 5631 5629 5628 5627 5625 5624 5622 5622 5621 5620 5619 5617 5616 5615 5614 5613 5612 5610 5609 5608 5607 5606 5605 5603 5602 5601 5601 5600 5599 5599 5599 5598 5598 5597 5596 5595 5595 5594 5594 5593 5592
5664 5661 5658 5658 5660 5664 5668 5670 5666 5662 5662 5661 5660 5661 5661 5660 5660 5657 5652 5651 5649 5648 5649 5645 5637 5641 5651 5652 5650 5650 5648 5647 5644 5642 5640 5639 5638 5638 5636 5635 5633 5630 5628 5626 5624 5622 5619 5617 5616 5615 5613 5612 5610 5609 5608 5607 5606 5605 5604 5603 5601 5600 5598 5597 5596 5594 5593 5592 5591 5590 5588 5587 5587 5586 5586 5586 5585 5585 5585 5584 5583 5581 5581 5581 5580 5580
5657 5655 5653 5650 5651 5654 5659 5662 5659 5655 5654 5653 5653 5654 5654 5654 5653 5650 5648 5645 5638 5637 5641 5637 5630 5635 5642 5642 5643 5642 5639 5636 5635 5633 5632 5632 5631 5630 5628 5626 5624 5621 5618 5616 5614 5612 5610 5608 5606 5604 5602 5600 5599 5597 5596 5595 5594 5593 5591 5590 5588 5587 5585 5584 5582 5581 5580 5579 5579 5577 5576 5574 5573 5573 5572 5572 5572 5572 5572 5571 5570 5569 5567 5567 5567 5567
5649 5648 5648 5645 5643 5644 5649 5653 5652 5647 5644 5645 5646 5647 5647 5647 5647 5644 5642 5638 5631 5629 5631 5629 5626 5629 5634 5635 5635 5633 5627 5624 5625 5624 5624 5624 5622 5621 5619 5617 5615 5612 5609 5607 5605 5603 5601 5599 5597 5594 5591 5589 5587 5585 5583 5582 5580 5579 5578 5576 5575 5573 5572 5570 5568 5567 5566 5566 5565 5564 5563 5562 5561 5560 5559 5559 5559 5559 5559 5558 5558 5557 5555 5554 5553 5553
5640 5640 5643 5641 5637 5637 5639 5642 5644 5639 5633 5634 5637 5639 5641 5641 5640 5636 5631 5628 5625 5621 5619 5623 5624 5621 5623 5628 5628 5623 5616 5612 5614 5615 5613 5612 5611 5610 5609 5608 5605 5603 5601 5599 5597 5595 5593 5591 5588 5585 5582 5578 5575 5573 5571 5569 5567 5565 5564 5562 5561 5560 5558 5556 5555 5553 5552 5551 5550 5550 5549 5549 5548 5547 5546 5546 5545 5544 5544 5543 5543 5543 5542 5541 5540 5539
5632 5632 5637 5634 5629 5631 5632 5631 5634 5631 5625 5625 5627 5629 5633 5633 5631 5628 5622 5618 5617 5610 5606 5615 5618 5610 5611 5618 5618 5613 5608 5602 5602 5603 5602 5601 5601 5600 5599 5598 5595 5594 5592 5590 5588 5585 5583 5581 5578 5575 5572 5568 5565 5562 5559 5557 5555 5553 5552 5550 5547 5546 5544 5542 5541 5540 5538 5537 5535 5534 5533 5533 5532 5532 5531 5531 5530 5529 5528 5527 5526 5526 5526 5526 5525 5525
5623 5623 5629 5626 5620 5623 5624 5623 5623 5620 5617 5617 5618 5619 5623 5624 5623 5620 5614 5610 5609 5601 5597 5604 5607 5600 5601 5606 5604 5601 5599 5595 5592 5592 5591 5591 5590 5588 5588 5587 5585 5583 5581 5580 5578 5575 5573 5570 5568 5565 5561 5558 5555 5551 5549 5546 5544 5542 5540 5537 5535 5532 5530 5528 5527 5525 5523 5522 5520 5519 5517 5516 5515 5515 5514 5514 5514 5513 5513 5512 5511 5510 5510 5509 5508 5508
5615 5616 5619 5615 5612 5615 5617 5616 5613 5609 5607 5609 5610 5611 5613 5614 5614 5610 5606 5604 5601 5593 5591 5593 5591 5588 5593 5595 5591 5589 5589 5587 5584 5582 5581 5580 5579 5578 5577 5575 5573 5571 5569 5567 5565 5563 5561 5558 5555 5552 5549 5545 5542 5539 5537 5535 5532 5530 5527 5524 5522 5520 5517 5516 5514 5512 5510 5508 5506 5504 5502 5501 5499 5498 5497 5496 5495 5495 5494 5494 5494 5494 5494 5493 5492 5492
5608 5607 5608 5605 5602 5605 5611 5609 5602 5598 5598 5598 5601 5605 5606 5606 5603 5600 5598 5597 5592 5586 5585 5583 5576 5576 5582 5583 5578 5577 5578 5577 5575 5572 5571 5570 5569 5568 5566 5564 5562 5559 5556 5553 5551 5549 5547 5545 5542 5538 5535 5531 5528 5525 5523 5522 5519 5516 5513 5511 5509 5506 5504 5502 5501 5499 5497 5495 5493 5490 5488 5486 5484 5483 5481 5480 5478 5477 5476 5475 5475 5475 5475 5475 5475 5475
5601 5598 5599 5597 5590 5593 5604 5600 5590 5590 5589 5587 5592 5600 5601 5598 5594 5591 5589 5587 5584 5579 5577 5573 5567 5567 5570 5568 5567 5567 5566 5566 5566 5564 5561 5559 5556 5555 5554 5552 5550 5547 5543 5539 5536 5534 5531 5529 5527 5524 5521 5517 5514 5512 5510 5507 5504 5501 5499 5497 5495 5493 5490 5488 5486 5484 5483 5481 5479 5477 5474 5472 5470 5468 5466 5464 5462 5460 5459 5458 5457 5457 5455 5455 5456 5456
5595 5590 5590 5588 5580 5582 5593 5590 5581 5580 5578 5578 5588 5595 5593 5588 5584 5581 5579 5579 5577 5573 5566 5561 5559 5558 5555 5554 5556 5557 5554 5554 5555 5553 5550 5546 5542 5540 5540 5539 5537 5533 5530 5527 5523 5520 5517 5514 5512 5509 5506 5503 5500 5498 5496 5493 5490 5487 5485 5483 5481 5479 5476 5474 5472 5470 5468 5467 5464 5462 5460 5457 5455 5453 5452 5450 5447 5445 5443 5442 5441 5440 5438 5437 5436 5436
5586 5582 5580 5578 5572 5573 5581 5580 5571 5567 5567 5573 5584 5587 5582 5577 5574 5570 5570 5571 5569 5564 5557 5552 5548 5544 5541 5541 5544 5544 5542 5542 5541 5540 5538 5533 5527 5526 5526 5524 5522 5519 5517 5514 5511 5508 5505 5501 5498 5494 5491 5488 5486 5486 5483 5480 5477 5474 5471 5469 5466 5465 5463 5461 5459 5457 5455 5453 5451 5448 5445 5443 5441 5439 5438 5436 5433 5431 5429 5427 5425 5424 5422 5420 5418 5418
5577 5575 5571 5569 5565 5564 5569 5569 5559 5555 5561 5568 5571 5573 5572 5568 5564 5561 5560 5561 5559 5554 5550 5545 5538 5532 5529 5531 5533 5531 5529 5529 5528 5528 5525 5518 5512 5512 5513 5512 5509 5507 5505 5502 5500 5497 5494 5491 5487 5483 5479 5476 5474 5473 5472 5469 5467 5464 5461 5458 5454 5453 5450 5447 5445 5443 5441 5439 5438 5435 5432 5429 5426 5425 5423 5422 5419 5416 5415 5412 5409 5408 5406 5403 5401 5401
5569 5567 5563 5561 5559 5556 5557 5557 5549 5546 5555 5559 5557 5559 5561 5558 5556 5552 5547 5547 5549 5547 5541 5534 5528 5523 5518 5519 5521 5520 5518 5517 5516 5516 5513 5505 5502 5501 5501 5501 5499 5496 5494 5492 5489 5488 5485 5481 5477 5473 5470 5467 5464 5462 5461 5459 5457 5455 5452 5449 5446 5443 5440 5437 5434 5431 5428 5426 5425 5422 5419 5415 5413 5411 5409 5407 5404 5402 5400 5397 5394 5392 5389 5386 5384 5384
5561 5559 5556 5552 5551 5549 5547 5545 5541 5539 5542 5547 5549 5548 5546 5546 5547 5541 5532 5532 5538 5538 5532 5522 5517 5514 5510 5507 5507 5506 5505 5504 5505 5506 5502 5495 5494 5493 5492 5491 5489 5486 5484 5482 5480 5479 5476 5472 5469 5465 5462 5459 5455 5453 5451 5450 5448 5446 5443 5441 5437 5434 5431 5427 5424 5421 5417 5415 5412 5409 5407 5403 5400 5397 5395 5392 5389 5387 5385 5382 5379 5378 5374 5370 5368 5368
5553 5551 5550 5544 5542 5543 5540 5535 5533 5530 5529 5536 5540 5536 5533 5535 5535 5528 5518 5518 5525 5526 5520 5512 5507 5504 5501 5498 5496 5494 5493 5492 5494 5496 5492 5486 5485 5485 5483 5482 5480 5477 5475 5474 5472 5470 5466 5463 5461 5458 5454 5451 5447 5445 5443 5441 5439 5436 5434 5431 5427 5424 5421 5417 5414 5411 5407 5404 5401 5398 5395 5391 5387 5384 5381 5379 5375 5372 5370 5368 5365 5363 5360 5355 5353 5353
5545 5542 5541 5536 5533 5536 5534 5527 5524 5521 5521 5525 5527 5525 5523 5522 5520 5515 5505 5504 5512 5513 5507 5502 5497 5493 5491 5490 5487 5485 5483 5482 5485 5487 5482 5478 5477 5476 5473 5472 5471 5468 5467 5466 5464 5462 5458 5456 5453 5449 5446 5443 5440 5437 5435 5433 5430 5427 5424 5421 5418 5414 5411 5407 5404 5401 5397 5394 5390 5386 5382 5378 5374 5371 5367 5365 5362 5359 5356 5353 5351 5348 5345 5341 5338 5336
5538 5533 5530 5528 5527 5528 5525 5518 5516 5515 5516 5516 5513 5512 5513 5510 5506 5501 5493 5492 5499 5499 5493 5491 5487 5483 5482 5481 5478 5477 5476 5475 5476 5478 5475 5471 5469 5467 5465 5463 5461 5461 5460 5458 5456 5453 5450 5447 5444 5441 5438 5435 5433 5430 5427 5425 5422 5418 5415 5412 5408 5404 5401 5397 5394 5391 5387 5383 5379 5375 5370 5366 5361 5358 5354 5351 5348 5345 5343 5339 5335 5333 5330 5326 5323 5320
5531 5525 5521 5520 5520 5520 5515 5508 5505 5507 5510 5509 5502 5499 5502 5499 5493 5489 5485 5483 5485 5484 5482 5481 5478 5475 5474 5472 5470 5470 5470 5468 5467 5467 5466 5463 5461 5460 5457 5455 5453 5453 5451 5449 5447 5445 5442 5439 5435 5433 5430 5427 5424 5422 5419 5416 5413 5410 5406 5402 5398 5394 5391 5387 5384 5380 5376 5372 5368 5363 5359 5354 5348 5344 5341 5337 5333 5331 5329 5324 5319 5317 5315 5311 5309 5306
5521 5517 5515 5515 5513 5510 5507 5500 5494 5494 5499 5500 5492 5488 5489 5487 5483 5480 5477 5474 5473 5472 5472 5471 5470 5469 5466 5464 5463 5463 5462 5462 5459 5457 5457 5455 5453 5452 5450 5448 5446 5444 5442 5440 5439 5437 5434 5430 5427 5425 5422 5418 5415 5413 5410 5407 5404 5400 5396 5392 5389 5385 5381 5377 5373 5369 5365 5361 5357 5352 5347 5341 5336 5331 5328 5324 5319 5316 5315 5312 5306 5303 5301 5298 5295 5294
5510 5508 5509 5510 5507 5501 5496 5490 5484 5483 5488 5489 5483 5479 5478 5475 5473 5471 5468 5464 5463 5464 5463 5462 5461 5461 5458 5456 5456 5456 5455 5454 5452 5449 5449 5447 5445 5443 5442 5441 5439 5436 5434 5432 5430 5428 5425 5422 5419 5417 5413 5410 5406 5403 5400 5397 5394 5390 5386 5382 5379 5374 5370 5366 5362 5358 5354 5350 5345 5340 5335 5330 5325 5320 5315 5311 5307 5304 5303 5300 5296 5293 5290 5287 5284 5283
5500 5501 5503 5503 5500 5491 5485 5481 5476 5473 5477 5477 5473 5471 5469 5465 5463 5462 5459 5456 5455 5455 5455 5453 5453 5453 5451 5449 5448 5448 5448 5447 5444 5442 5441 5439 5437 5436 5434 5432 5430 5428 5426 5424 5421 5419 5416 5413 5411 5408 5404 5401 5397 5394 5391 5387 5384 5381 5377 5372 5368 5364 5360 5356 5352 5347 5344 5339 5334 5329 5324 5319 5314 5309 5305 5301 5298 5295 5293 5290 5287 5284 5281 5278 5275 5272
5492 5496 5495 5493 5491 5483 5475 5474 5470 5464 5466 5466 5461 5461 5459 5456 5456 5455 5451 5449 5448 5446 5445 5444 5444 5445 5444 5440 5439 5439 5439 5439 5438 5436 5434 5432 5430 5428 5426 5424 5422 5419 5417 5415 5412 5410 5407 5404 5402 5399 5396 5393 5389 5385 5382 5378 5374 5371 5367 5363 5359 5354 5350 5347 5342 5338 5334 5328 5323 5318 5314 5310 5305 5300 5296 5293 5289 5287 5285 5282 5280 5277 5273 5269 5266 5262
5487 5490 5485 5480 5480 5474 5467 5467 5464 5460 5462 5461 5454 5451 5450 5448 5450 5450 5445 5443 5442 5440 5439 5437 5437 5438 5437 5433 5432 5431 5430 5431 5430 5428 5427 5425 5423 5421 5418 5416 5414 5411 5409 5406 5403 5401 5398 5395 5393 5390 5387 5385 5380 5377 5373 5369 5365 5362 5358 5354 5350 5346 5341 5337 5333 5329 5325 5319 5314 5309 5305 5301 5297 5293 5289 5286 5283 5280 5278 5275 5272 5269 5265 5261 5257 5253
5480 5483 5477 5469 5467 5461 5456 5458 5459 5456 5457 5457 5449 5444 5443 5441 5442 5442 5439 5438 5437 5435 5434 5433 5431 5430 5429 5427 5426 5424 5423 5423 5422 5421 5419 5417 5415 5413 5411 5408 5406 5404 5401 5398 5395 5393 5390 5387 5384 5381 5379 5376 5373 5369 5366 5362 5357 5353 5350 5346 5342 5338 5334 5329 5325 5321 5317 5311 5306 5302 5297 5293 5290 5286 5283 5280 5277 5275 5271 5268 5264 5261 5257 5252 5248 5245
5472 5472 5467 5461 5457 5451 5446 5447 5451 5450 5450 5449 5444 5440 5438 5436 5434 5433 5432 5432 5431 5430 5428 5427 5425 5424 5422 5421 5420 5418 5417 5416 5414 5413 5412 5409 5407 5405 5403 5400 5398 5395 5392 5390 5387 5385 5382 5379 5376 5374 5371 5368 5365 5362 5359 5355 5350 5346 5342 5338 5334 5330 5326 5322 5318 5314 5309 5304 5300 5295 5290 5286 5283 5280 5278 5275 5272 5269 5265 5261 5258 5254 5250 5245 5240 5236
5462 5459 5458 5453 5446 5442 5439 5439 5441 5440 5439 5440 5439 5435 5432 5430 5428 5427 5426 5425 5425 5424 5422 5420 5418 5417 5416 5415 5414 5412 5411 5409 5407 5406 5404 5402 5400 5398 5395 5393 5390 5387 5385 5382 5379 5377 5374 5371 5368 5366 5363 5360 5358 5355 5352 5348 5343 5339 5335 5331 5327 5323 5319 5316 5312 5308 5303 5298 5293 5288 5283 5280 5277 5274 5272 5270 5267 5263 5259 5255 5251 5247 5243 5238 5232 5226
5452 5448 5449 5442 5433 5431 5433 5434 5433 5430 5428 5431 5433 5429 5426 5424 5421 5420 5420 5419 5418 5417 5415 5413 5412 5410 5409 5408 5407 5406 5404 5403 5401 5399 5397 5394 5392 5390 5387 5385 5382 5380 5377 5374 5371 5369 5366 5363 5360 5358 5356 5353 5350 5348 5345 5341 5336 5332 5328 5324 5320 5316 5313 5310 5307 5303 5298 5293 5288 5283 5278 5275 5271 5269 5266 5264 5261 5258 5254 5249 5244 5239 5236 5231 5225 5218
5441 5437 5437 5431 5424 5424 5426 5427 5425 5422 5420 5422 5423 5422 5421 5419 5415 5413 5414 5413 5411 5409 5408 5406 5405 5404 5403 5402 5400 5399 5397 5395 5394 5392 5390 5387 5385 5382 5380 5377 5375 5372 5369 5366 5364 5361 5358 5355 5353 5351 5348 5346 5344 5341 5338 5334 5330 5326 5322 5318 5314 5311 5307 5304 5301 5298 5293 5288 5283 5278 5273 5269 5266 5263 5260 5257 5254 5252 5249 5245 5240 5233 5228 5224 5219 5213